Date String (YYYY-MM-DD hh:mm:ss) UTC,Instrument flags,Ambient pressure (hPa),Sample flow (lpm),Bypass flow (lpm),Sample temperature (°C),Ambient temperature (°C),ASC tube jacket temperature (°C),LED temperature (°C),Box temperature (°C),Sample RH (%),Span deviation,Mass concentration (μg/m³),Mass concentration (μg/m³),Mass concentration (μg/m³)
DateTimeUTC,F1_M11,P_M11,Q1_M11,Q2_M11,T1_M11,T2_M11,T3_M11,T4_M11,T5_M11,U1_M11,ZSPAN_M11,X0_M11,X2_M11,X1_M11
2021-12-05 12:00:00,,0817.6,5.00,0.00,25.5,24.6,00.0,34.6,27.3,07.2,0000.0,0010.16,0002.52,0000.59
2021-12-05 12:01:00,,0817.6,5.00,0.00,25.5,24.6,00.0,34.6,27.3,07.2,0000.0,0010.71,0002.68,0000.59
2021-12-05 12:02:00,,0817.7,5.01,0.00,25.5,24.5,00.0,34.6,27.3,07.3,0000.0,0012.32,0002.97,0000.62
2021-12-05 12:03:00,,0817.9,4.99,0.00,25.5,24.5,00.0,34.6,27.3,07.3,0000.0,0014.14,0003.29,0000.67
2021-12-05 12:04:00,,0817.9,5.01,0.00,25.5,24.5,00.0,34.6,27.3,07.1,0000.0,0016.05,0003.44,0000.69
2021-12-05 12:05:00,,0817.6,4.99,0.00,25.5,24.5,00.0,34.6,27.3,07.1,0000.0,0018.10,0003.59,0000.71
2021-12-05 12:06:00,,0817.5,5.00,0.00,25.5,24.5,00.0,34.5,27.3,07.1,0000.0,0018.24,0003.71,0000.73
2021-12-05 12:07:00,,0817.7,5.01,0.00,25.5,24.5,00.0,34.5,27.3,07.1,0000.0,0018.82,0003.76,0000.75
2021-12-05 12:08:00,,0817.9,4.99,0.00,25.5,24.5,00.0,34.5,27.3,07.1,0000.0,0018.76,0003.66,0000.74
2021-12-05 12:09:00,,0817.8,5.00,0.00,25.5,24.5,00.0,34.5,27.2,07.2,0000.0,0018.46,0003.50,0000.71
2021-12-05 12:10:00,,0817.7,5.01,0.00,25.4,24.5,00.0,34.5,27.2,07.2,0000.0,0016.74,0003.41,0000.70
2021-12-05 12:11:00,,0817.7,5.00,0.00,25.4,24.5,00.0,34.5,27.2,07.1,0000.0,0015.89,0003.32,0000.69
2021-12-05 12:12:00,,0817.8,4.99,0.00,25.4,24.5,00.0,34.5,27.2,07.2,0000.0,0015.44,0003.24,0000.68
2021-12-05 12:13:00,,0817.7,5.00,0.00,25.4,24.5,00.0,34.5,27.2,07.2,0000.0,0013.95,0003.07,0000.66
2021-12-05 12:14:00,,0817.6,5.01,0.00,25.4,24.5,00.0,34.5,27.2,07.2,0000.0,0012.05,0002.64,0000.61
2021-12-05 12:15:00,,0817.7,5.00,0.00,25.4,24.4,00.0,34.5,27.2,07.0,0000.0,0010.42,0002.40,0000.60
2021-12-05 12:16:00,,0817.7,5.00,0.00,25.4,24.5,00.0,34.5,27.2,07.1,0000.0,0008.59,0002.17,0000.59
2021-12-05 12:17:00,,0817.8,4.99,0.00,25.4,24.5,00.0,34.5,27.2,07.1,0000.0,0008.20,0002.02,0000.57
2021-12-05 12:18:00,,0817.6,5.02,0.00,25.4,24.5,00.0,34.5,27.1,07.1,0000.0,0008.16,0001.85,0000.55
2021-12-05 12:19:00,,0817.5,5.01,0.00,25.4,24.5,00.0,34.5,27.1,07.0,0000.0,0008.39,0001.69,0000.52
2021-12-05 12:20:00,,0817.4,4.99,0.00,25.4,24.4,00.0,34.4,27.2,06.9,0000.0,0008.63,0001.56,0000.51
2021-12-05 12:21:00,,0817.4,4.99,0.00,25.4,24.4,00.0,34.4,27.1,06.8,0000.0,0008.96,0001.60,0000.51
2021-12-05 12:22:00,,0817.6,5.00,0.00,25.4,24.4,00.0,34.4,27.1,06.9,0000.0,0009.03,0001.65,0000.51
2021-12-05 12:23:00,,0817.6,5.00,0.00,25.4,24.4,00.0,34.4,27.1,06.8,0000.0,0009.12,0001.67,0000.52
2021-12-05 12:24:00,,0817.6,5.00,0.00,25.3,24.4,00.0,34.4,27.1,06.8,0000.0,0009.29,0001.70,0000.52
2021-12-05 12:25:00,,0817.6,5.01,0.00,25.3,24.4,00.0,34.4,27.1,06.9,0000.0,0009.72,0001.69,0000.51
2021-12-05 12:26:00,,0817.5,4.99,0.00,25.3,24.4,00.0,34.4,27.1,06.9,0000.0,0009.27,0001.58,0000.49
2021-12-05 12:27:00,,0817.5,5.00,0.00,25.3,24.4,00.0,34.4,27.1,06.9,0000.0,0008.95,0001.48,0000.49
2021-12-05 12:28:00,,0817.5,5.00,0.00,25.3,24.4,00.0,34.4,27.1,06.9,0000.0,0008.73,0001.36,0000.48
2021-12-05 12:29:00,,0817.4,4.99,0.00,25.3,24.4,00.0,34.4,27.1,06.9,0000.0,0008.08,0001.33,0000.48
2021-12-05 12:30:00,,0817.6,5.01,0.00,25.3,24.4,00.0,34.4,27.0,06.9,0000.0,0006.20,0001.30,0000.48
2021-12-05 12:31:00,,0817.5,4.99,0.00,25.3,24.4,00.0,34.4,27.0,06.9,0000.0,0004.96,0001.25,0000.47
2021-12-05 12:32:00,,0817.6,5.00,0.00,25.3,24.4,00.0,34.4,27.1,06.8,0000.0,0004.02,0001.18,0000.45
2021-12-05 12:33:00,,0817.4,4.99,0.00,25.3,24.4,00.0,34.4,27.0,06.8,0000.0,0003.81,0001.08,0000.44
2021-12-05 12:34:00,,0817.4,5.01,0.00,25.3,24.4,00.0,34.4,27.1,06.7,0000.0,0003.82,0001.09,0000.44
2021-12-05 12:35:00,,0817.6,4.99,0.00,25.3,24.3,00.0,34.3,27.1,06.8,0000.0,0003.72,0001.08,0000.43
2021-12-05 12:36:00,,0817.7,5.02,0.00,25.3,24.3,00.0,34.3,27.1,06.9,0000.0,0002.65,0001.06,0000.44
2021-12-05 12:37:00,,0817.7,4.99,0.00,25.3,24.3,00.0,34.3,27.0,06.8,0000.0,0002.63,0001.05,0000.44
2021-12-05 12:38:00,,0817.5,5.00,0.00,25.2,24.3,00.0,34.3,27.0,06.9,0000.0,0002.48,0001.00,0000.43
2021-12-05 12:39:00,,0817.5,5.00,0.00,25.2,24.3,00.0,34.3,27.0,06.8,0000.0,0002.74,0001.04,0000.43
2021-12-05 12:40:00,,0817.5,5.00,0.00,25.2,24.3,00.0,34.3,26.9,06.9,0000.0,0003.40,0001.09,0000.44
2021-12-05 12:41:00,,0817.5,5.00,0.00,25.2,24.3,00.0,34.3,27.0,06.9,0000.0,0004.18,0001.11,0000.44
2021-12-05 12:42:00,,0817.5,4.99,0.00,25.2,24.3,00.0,34.3,27.0,06.8,0000.0,0004.79,0001.07,0000.44
2021-12-05 12:43:00,,0817.6,4.99,0.00,25.2,24.3,00.0,34.3,27.0,06.8,0000.0,0004.71,0001.07,0000.45
2021-12-05 12:44:00,,0817.6,5.01,0.00,25.2,24.3,00.0,34.3,27.0,06.6,0000.0,0004.66,0001.09,0000.44
2021-12-05 12:45:00,,0817.6,5.00,0.00,25.2,24.3,00.0,34.3,27.0,06.7,0000.0,0004.55,0001.04,0000.45
2021-12-05 12:46:00,,0817.6,4.99,0.00,25.2,24.3,00.0,34.3,26.9,06.6,0000.0,0004.37,0000.99,0000.44
2021-12-05 12:47:00,,0817.6,5.00,0.00,25.2,24.3,00.0,34.3,27.0,06.6,0000.0,0004.21,0000.94,0000.44
2021-12-05 12:48:00,,0817.7,5.00,0.00,25.2,24.3,00.0,34.3,26.9,06.5,0000.0,0004.05,0000.88,0000.43
2021-12-05 12:49:00,,0817.7,5.00,0.00,25.2,24.3,00.0,34.3,26.9,06.6,0000.0,0004.14,0000.91,0000.43
2021-12-05 12:50:00,,0817.8,4.99,0.00,25.2,24.3,00.0,34.3,26.9,06.5,0000.0,0004.06,0000.89,0000.42
2021-12-05 12:51:00,,0817.7,5.01,0.00,25.2,24.2,00.0,34.3,26.9,06.6,0000.0,0003.34,0000.85,0000.41
2021-12-05 12:52:00,,0817.7,5.00,0.00,25.2,24.2,00.0,34.3,26.9,06.7,0000.0,0002.62,0000.79,0000.39
2021-12-05 12:53:00,,0817.7,4.99,0.00,25.2,24.3,00.0,34.3,26.9,06.8,0000.0,0001.75,0000.78,0000.39
2021-12-05 12:54:00,,0817.5,4.99,0.00,25.2,24.3,00.0,34.2,27.0,06.9,0000.0,0001.80,0000.80,0000.38
2021-12-05 12:55:00,,0817.5,5.00,0.00,25.2,24.3,00.0,34.3,27.0,06.7,0000.0,0001.78,0000.79,0000.38
2021-12-05 12:56:00,,0817.5,5.00,0.00,25.2,24.3,00.0,34.3,27.0,06.7,0000.0,0001.83,0000.82,0000.38
2021-12-05 12:57:00,,0817.5,5.00,0.00,25.2,24.3,00.0,34.3,27.0,06.8,0000.0,0001.84,0000.82,0000.38
2021-12-05 12:58:00,,0817.6,5.01,0.00,25.2,24.3,00.0,34.3,27.0,06.7,0000.0,0001.62,0000.77,0000.37
2021-12-05 12:59:00,,0817.5,5.00,0.00,25.2,24.3,00.0,34.3,27.0,06.7,0000.0,0002.09,0000.78,0000.37
